Pagrindinis puslapis
METAR-TAF:

METAR-TAF

Oro uostai :

Puerto Ajakučas, Venesuela

platuma: 05-36N, ilguma: 067-30W, Aukštis: 73 m

Dabartinis oras

Ataskaita buvo paskelbta 13 minutes, ne 05:02 UTC
Vėjas 5 kt iš Pietų
Temperatūra 27°C
Drėgmė 84%
Slėgis 1009 hPa

METAR: SVPA 010502Z AUTO 18005KT NCD 27/24 Q1009

Laikas: 01:15 (05:15 UTC)


TAF: trūkstamas

Orai ataskaitas ir orų prognozės (METAR, TAF).

turimą stotys yra geltonos ir raudonos taškus žemėlapyje.

Perkelti pele per norėdami pamatyti stoties vardą.

Tada spustelėkite, norėdami matyti oro stebėjimo ir prognozės.

Norėdami pakeisti žemėlapį: spustelėkite ant žalios mygtukų su juodo kryžiaus žemyn,; žalią mygtuką su brūkšneliu, jei norite nutolinti; arba žalių rodyklių gretimoms žemėlapius.


METAR-TAF: